| time (UTC) | temp F | wind direction | speed knots | gust knots | rain 1hr in | rain 24hr in | rain mn in | humidity % | barometer mb |
| 20260504050011 | 46 | 280 | 0.0 | 0.0 | 0.00 | 0.23 | 0.00 | 60 | 1012.8 |
| 20260504044507 | 46 | 127 | 0.0 | 0.0 | 0.00 | 0.24 | 0.00 | 59 | 1012.7 |
| 20260504043008 | 46 | 128 | 0.0 | 0.0 | 0.00 | 0.24 | 0.00 | 59 | 1012.7 |
| 20260504041504 | 46 | 129 | 0.0 | 0.0 | 0.00 | 0.24 | 0.00 | 59 | 1012.8 |
| 20260504040007 | 47 | 129 | 0.0 | 0.0 | 0.00 | 0.24 | 0.00 | 58 | 1012.8 |
| 20260504034615 | 47 | 129 | 0.0 | 0.0 | 0.00 | 0.24 | 0.00 | 58 | 1012.9 |
| 20260504033101 | 47 | 129 | 0.0 | 0.0 | 0.00 | 0.24 | 0.00 | 57 | 1013.0 |
| 20260504031611 | 48 | 129 | 0.0 | 0.0 | 0.00 | 0.24 | 0.00 | 56 | 1013.1 |
| 20260504030114 | 48 | 129 | 0.0 | 0.0 | 0.00 | 0.24 | 0.00 | 56 | 1013.2 |
| 20260504024556 | 48 | 153 | 0.0 | 0.0 | 0.00 | 0.24 | 0.00 | 57 | 1013.0 |
| 20260504023055 | 48 | 124 | 0.0 | 0.0 | 0.00 | 0.24 | 0.00 | 57 | 1013.1 |
| 20260504021605 | 48 | 123 | 0.0 | 0.0 | 0.00 | 0.24 | 0.00 | 57 | 1013.1 |
| 20260504020054 | 48 | 125 | 0.0 | 0.0 | 0.00 | 0.24 | 0.00 | 56 | 1013.1 |
| 20260504014552 | 48 | 95 | 0.0 | 0.0 | 0.00 | 0.25 | 0.00 | 57 | 1013.1 |
| 20260504013050 | 49 | 93 | 0.0 | 0.0 | 0.00 | 0.25 | 0.00 | 56 | 1013.3 |
| 20260504011549 | 49 | 95 | 0.0 | 0.0 | 0.00 | 0.25 | 0.00 | 56 | 1013.2 |
| 20260504010046 | 50 | 95 | 0.0 | 0.0 | 0.00 | 0.25 | 0.00 | 55 | 1013.3 |
| 20260504004544 | 50 | 94 | 0.0 | 0.0 | 0.00 | 0.25 | 0.00 | 54 | 1013.3 |
| 20260504003045 | 51 | 95 | 0.0 | 0.0 | 0.00 | 0.25 | 0.00 | 53 | 1013.4 |
| 20260504001541 | 51 | 108 | 0.0 | 0.0 | 0.00 | 0.25 | 0.00 | 53 | 1013.6 |
| 20260504000047 | 52 | 154 | 0.0 | 0.0 | 0.00 | 0.25 | 0.00 | 52 | 1013.8 |
| 20260503234534 | 52 | 201 | 0.0 | 0.0 | 0.00 | 0.25 | 0.00 | 51 | 1013.8 |
| 20260503233038 | 53 | 83 | 0.0 | 0.0 | 0.00 | 0.25 | 0.00 | 49 | 1013.7 |
| 20260503231531 | 54 | 14 | 0.0 | 0.9 | 0.00 | 0.25 | 0.00 | 48 | 1013.9 |
| 20260503230030 | 54 | 93 | 0.0 | 0.0 | 0.00 | 0.25 | 0.00 | 48 | 1013.9 |
| 20260503224530 | 54 | 112 | 0.0 | 3.5 | 0.00 | 0.25 | 0.00 | 47 | 1013.9 |
| 20260503223026 | 55 | 94 | 0.0 | 2.6 | 0.00 | 0.25 | 0.00 | 44 | 1013.8 |
| 20260503221524 | 55 | 150 | 0.0 | 0.0 | 0.00 | 0.25 | 0.00 | 47 | 1013.9 |
| 20260503220024 | 56 | 256 | 0.0 | 0.0 | 0.00 | 0.25 | 0.00 | 46 | 1013.8 |
| 20260503214523 | 56 | 137 | 0.0 | 0.0 | 0.00 | 0.25 | 0.25 | 43 | 1013.7 |
| 20260503213021 | 56 | 174 | 0.0 | 0.0 | 0.00 | 0.25 | 0.25 | 45 | 1013.7 |
| 20260503211520 | 57 | 174 | 0.0 | 0.0 | 0.00 | 0.25 | 0.25 | 45 | 1013.8 |
| 20260503210021 | 57 | 124 | 0.0 | 0.0 | 0.00 | 0.25 | 0.25 | 46 | 1013.7 |
| 20260503204520 | 57 | 124 | 0.0 | 0.0 | 0.00 | 0.25 | 0.25 | 46 | 1013.5 |
| 20260503203022 | 58 | 279 | 0.0 | 0.0 | 0.00 | 0.25 | 0.25 | 46 | 1013.2 |
| 20260503201519 | 58 | 359 | 0.0 | 0.0 | 0.00 | 0.25 | 0.25 | 45 | 1013.1 |
| 20260503200018 | 58 | 156 | 0.0 | 0.9 | 0.00 | 0.25 | 0.25 | 44 | 1012.9 |
| 20260503194518 | 59 | 214 | 0.0 | 0.0 | 0.00 | 0.25 | 0.25 | 45 | 1012.6 |
| 20260503193018 | 59 | 214 | 0.0 | 0.0 | 0.00 | 0.25 | 0.25 | 44 | 1012.7 |
| 20260503191517 | 60 | 214 | 0.0 | 0.9 | 0.00 | 0.25 | 0.25 | 41 | 1012.5 |
| 20260503190017 | 60 | 203 | 0.0 | 2.6 | 0.00 | 0.25 | 0.25 | 40 | 1012.3 |
| 20260503184519 | 61 | 145 | 0.0 | 2.6 | 0.00 | 0.25 | 0.25 | 39 | 1012.3 |
| 20260503183016 | 61 | 179 | 0.0 | 7.0 | 0.00 | 0.25 | 0.25 | 38 | 1012.2 |
| 20260503181515 | 61 | 177 | 0.0 | 6.1 | 0.00 | 0.25 | 0.25 | 36 | 1012.3 |
| 20260503180015 | 62 | 184 | 0.9 | 7.8 | 0.00 | 0.25 | 0.25 | 35 | 1012.3 |
| 20260503174517 | 63 | 234 | 2.6 | 8.7 | 0.00 | 0.25 | 0.25 | 35 | 1012.1 |
| 20260503173014 | 63 | 174 | 1.7 | 11.3 | 0.00 | 0.25 | 0.25 | 36 | 1012.1 |
| 20260503171514 | 62 | 170 | 3.5 | 14.8 | 0.00 | 0.25 | 0.25 | 38 | 1012.0 |
| 20260503081525 | 58 | 87 | 0.0 | 0.0 | 0.00 | 0.44 | 0.18 | 59 | 1015.0 |
| 20260503071516 | 54 | 23 | 0.0 | 0.0 | 0.02 | 0.45 | 0.18 | 66 | 1015.0 |